Regional Weather Roundup
Issued by NWS

Home | Current Version | Previous Version | Graphics & Text | Print | Product List | Glossary On
Versions: 1 2 3 4 5 6 7 8 9 10 11 12 13 14 15 16 17 18 19 20 21 22 23 24 25 26 27 28 29 30 31 32 33 34 35 36 37 38 39 40 41 42 43 44 45 46 47 48 49 50
000
ASUS43 KLMK 170202
RWRKY
KENTUCKY REGIONAL WEATHER ROUNDUP
NATIONAL WEATHER SERVICE LOUISVILLE KY
1000 PM EDT WED APR 16 2014

NOTE "FAIR" INDICATES FEW OR NO CLOUDS BELOW 12,000 FEET
WITH NO SIGNIFICANT WEATHER AND/OR OBSTRUCTIONS TO VISIBILITY.

KYZ001>023-026-027-061>063-070>075-170300-
WESTERN AND SOUTH CENTRAL KENTUCKY

CITY           SKY/WX    TMP DP  RH WIND       PRES   REMARKS
PADUCAH        MOCLDY    49  32  52 E7        30.15R
HENDERSON      PTCLDY    48  27  43 SE6       30.19R
OWENSBORO      MOCLDY    49  28  44 CALM      30.20R
HOPKINSVILLE   PTCLDY    50  30  46 E6        30.18R
BOWLING GREEN  MOCLDY    47  30  51 CALM      30.20R
GLASGOW        NOT AVBL
$$

KYZ024-025-028>034-038-045-046-053-170300-
NORTH CENTRAL KENTUCKY

CITY           SKY/WX    TMP DP  RH WIND       PRES   REMARKS
LOUISVILLE/SDF MOCLDY    50  25  37 E6        30.22R
LOUISVILLE/LOU PTCLDY    51  24  34 E5        30.23R
FORT KNOX      MOCLDY    47  26  43 E6        30.20R
$$

KYZ035>037-039>044-047>052-055>060-089>105-170300-
NORTHEAST KENTUCKY

CITY           SKY/WX    TMP DP  RH WIND       PRES   REMARKS
LEXINGTON      MOCLDY    47  22  37 E8        30.24R
COVINGTON      MOCLDY    44  22  41 E7        30.25S
FRANKFORT      MOCLDY    43  25  49 E6        30.23R
$$

KYZ054-064>069-076>088-106>120-170300-
SOUTHEAST KENTUCKY

CITY           SKY/WX    TMP DP  RH WIND       PRES   REMARKS
JACKSON        PTCLDY    47  19  33 VRB3      30.24S
LONDON         PTCLDY    50  22  33 CALM      30.23R
SOMERSET       NOT AVBL
MIDDLESBORO    NOT AVBL
MONTICELLO     PTCLDY    39  31  73 CALM      30.23R
$$




USA.gov is the U.S. government's official web portal to all federal, state and local government web resources and services.